Theta_e
322 321 321 320 320 320 320 319 319 319 319 319 319 318 317 317 318 318 319 320 320 321 321 321 321 322 322 319 315 325 339 334 321 322 319 315 314 313 310 312 313 311 313 314 316 318 320
321 321 321 320 320 319 319 319 319 318 318 318 318 318 318 317 317 318 318 319 319 319 320 320 321 321 324 313 323 324 323 321 320 318 317 317 315 316 314 312 310 314 313 313 315 316 317
321 321 321 320 319 319 319 319 319 318 318 318 317 317 317 317 317 317 318 318 317 318 319 321 322 321 319 314 323 324 322 320 319 317 314 317 318 314 315 311 315 313 309 311 312 314 314
320 320 320 319 318 317 317 318 318 318 318 318 317 316 317 317 317 316 317 317 317 318 319 321 322 323 315 322 326 322 322 319 320 320 319 319 319 317 315 316 312 309 310 305 311 312 314
320 320 319 318 317 316 316 316 316 317 317 317 317 316 316 316 316 316 315 315 319 319 320 321 323 324 312 318 317 320 322 317 318 320 320 318 319 315 313 309 307 308 303 304 308 313 312
319 318 318 317 316 315 315 315 315 316 316 316 316 315 315 315 315 315 314 315 319 318 320 323 324 316 315 313 317 317 321 318 315 316 315 314 314 310 310 308 301 304 304 305 305 310 310
317 318 317 316 316 315 314 314 314 315 315 316 315 315 314 315 314 313 314 323 319 319 323 316 315 314 313 318 319 316 318 316 315 313 308 312 307 305 308 309 309 308 306 305 308 311 308
316 316 316 316 315 314 314 313 313 314 314 314 314 314 314 314 313 313 318 319 318 319 312 316 315 315 317 318 311 314 318 312 310 307 310 308 304 309 309 307 306 306 304 304 308 310 310
315 315 315 315 314 313 314 314 313 313 313 313 312 313 313 314 312 314 320 319 324 322 313 312 314 313 314 316 311 312 315 313 310 307 308 306 309 309 307 306 304 305 304 305 304 308 309
314 315 314 314 313 313 314 314 313 313 313 312 312 312 313 311 312 321 316 322 323 323 308 306 309 312 314 315 309 315 316 314 310 308 307 308 310 307 306 305 306 304 308 305 305 303 300
315 315 314 314 314 313 312 313 312 312 312 312 312 312 312 309 320 317 322 325 325 322 298 307 309 319 315 311 312 311 317 314 309 309 309 306 306 306 305 306 307 305 308 306 306 304 304
313 313 314 313 313 312 312 311 311 311 311 311 311 312 311 317 320 321 325 325 321 306 297 304 310 308 308 310 310 312 313 316 314 309 309 308 311 308 308 308 308 309 307 307 307 304 297
312 312 313 313 311 312 311 310 310 311 311 311 311 310 310 320 317 321 324 319 305 300 310 305 305 307 307 306 307 309 309 309 307 303 304 306 306 309 310 306 309 307 304 297 296 296 294
312 312 312 312 312 311 311 310 310 310 310 310 309 308 315 320 322 321 321 310 298 305 306 310 307 307 304 307 307 307 306 305 308 307 304 301 299 306 309 306 305 305 305 298 291 293 296
310 311 311 312 311 311 310 310 309 309 309 309 307 325 325 325 324 324 315 303 302 306 310 306 307 303 304 306 306 306 306 306 308 308 303 302 300 307 307 308 307 304 301 306 300 300 295
309 310 311 311 311 311 310 310 310 310 309 308 314 322 321 323 326 321 312 302 305 309 311 309 304 305 302 304 303 305 306 308 307 309 311 307 300 306 306 307 308 305 307 299 300 292 291
308 310 310 310 310 310 311 310 310 309 308 307 316 317 321 325 325 316 306 307 307 311 313 310 307 305 306 305 305 305 304 308 309 308 310 309 306 304 306 303 303 305 303 303 303 299 292
306 309 310 310 310 310 310 310 309 308 307 310 317 313 324 326 312 313 308 309 301 308 312 311 311 309 306 307 305 305 304 308 310 310 306 310 308 301 302 306 306 304 302 304 298 296 299
305 306 308 310 310 310 310 309 309 308 307 309 310 314 324 323 308 309 310 307 308 307 310 309 308 310 311 308 304 307 307 309 310 309 308 311 304 298 299 304 306 302 303 304 304 303 297
304 305 306 309 310 310 309 309 309 308 307 309 311 307 315 317 316 313 309 308 306 309 310 311 310 311 310 307 310 307 307 307 309 309 307 309 307 302 296 299 303 300 301 302 302 300 298
304 304 305 307 309 309 309 309 309 307 307 311 312 309 310 309 311 311 312 309 306 306 309 312 309 309 308 305 306 305 307 308 308 305 309 310 303 304 304 301 300 299 299 299 299 300 297
303 303 304 306 308 308 309 309 308 307 306 313 306 306 312 306 309 309 306 308 307 308 308 307 307 309 310 307 308 305 307 307 306 310 309 311 302 304 301 302 301 298 299 299 299 299 299
303 303 303 305 306 308 308 308 307 307 307 312 312 313 307 305 306 306 307 308 308 309 310 311 311 309 308 310 312 313 314 314 312 308 309 309 305 301 297 300 299 295 299 300 300 301 300
303 303 302 303 304 307 308 308 306 308 307 311 314 309 305 300 303 303 306 307 307 308 308 310 312 311 314 316 315 314 313 311 310 310 313 308 306 303 298 298 289 301 305 303 301 302 303
304 303 302 302 303 305 307 307 307 307 308 310 313 310 307 301 303 302 305 306 308 309 308 310 311 317 317 313 307 304 303 304 306 308 309 311 307 302 296 296 298 300 302 301 299 299 305
304 303 303 302 302 304 305 307 307 307 308 310 313 313 307 303 303 305 304 307 305 307 308 309 313 318 314 309 304 297 295 299 298 301 307 308 308 303 297 292 289 302 305 307 306 296 307
304 303 303 302 303 303 304 306 307 306 307 309 311 318 308 303 307 306 303 305 309 309 308 310 310 309 314 306 301 299 298 301 296 297 299 300 302 298 297 295 298 306 307 307 294 300 308
302 302 302 302 302 302 304 306 307 306 307 308 309 317 309 305 307 308 307 306 308 309 306 311 309 309 307 303 301 301 300 301 300 302 302 300 298 298 299 296 293 309 306 300 309 311 309
301 302 302 302 302 302 303 304 307 307 307 307 305 312 312 305 306 312 312 313 311 311 309 315 311 311 310 306 305 305 301 302 300 297 307 300 304 304 304 304 312 312 311 314 313 310 309
Wind_Speed
19 20 21 22 21 20 19 19 18 18 17 17 17 18 16 14 13 11 11 11 10 10 10 10 10 9 9 11 8 10 7 8 11 13 12 10 12 13 12 12 14 10 18 12 10 9 10
19 19 20 20 20 20 20 20 19 19 18 18 17 17 17 16 14 12 11 10 10 11 11 10 10 9 9 12 9 7 5 8 9 10 8 9 6 6 11 8 7 6 13 11 10 16 11
19 20 20 20 20 21 21 20 20 20 19 19 18 18 17 16 15 14 12 11 11 11 11 11 9 8 11 6 6 7 6 5 1 5 5 1 4 8 3 6 7 6 12 11 13 10 12
19 20 20 20 21 22 22 22 21 21 20 20 19 19 18 17 16 15 14 13 12 11 11 11 8 11 3 4 3 6 6 5 4 4 2 1 5 11 11 5 5 11 11 14 16 13 9
19 20 21 22 22 22 23 23 22 22 22 21 20 20 19 18 17 15 14 14 9 7 10 8 8 10 7 5 13 5 7 3 6 6 3 4 10 9 6 11 11 9 13 9 12 7 11
20 21 22 22 23 23 24 24 23 23 22 22 22 21 20 19 17 15 14 8 3 5 8 10 11 9 8 5 6 3 6 5 5 7 9 11 8 9 11 10 9 6 10 3 5 12 7
21 20 21 22 22 23 24 25 24 24 24 24 23 22 22 20 18 14 12 6 8 8 13 13 3 4 8 6 7 10 9 10 8 8 13 9 9 12 6 2 11 13 10 6 9 10 3
20 20 21 22 22 22 21 22 24 24 24 24 24 24 23 22 20 13 8 10 7 8 9 9 6 8 2 1 6 7 7 11 8 14 8 7 12 6 6 4 6 10 10 11 7 7 9
20 20 21 21 22 23 22 24 24 24 25 25 25 24 24 23 21 6 13 3 6 6 9 9 10 12 12 11 4 11 12 5 10 7 8 13 11 5 5 7 9 11 13 11 11 7 10
18 16 18 20 21 23 23 24 24 25 26 25 26 25 24 27 5 4 9 1 6 3 8 13 12 7 7 8 7 2 6 8 7 5 4 4 6 6 9 9 6 14 5 6 10 8 13
17 18 17 17 19 21 22 24 25 25 27 27 26 26 24 10 12 9 8 4 2 5 8 16 14 13 11 9 12 11 4 7 10 5 10 6 4 6 10 9 4 6 5 6 8 11 14
18 19 19 19 20 20 22 23 26 26 27 28 28 26 23 6 8 7 3 2 6 9 4 10 10 12 13 11 6 10 10 8 6 8 7 4 3 5 10 1 5 8 10 13 13 14 15
18 19 19 19 20 21 22 23 25 27 28 29 30 27 14 8 3 2 4 8 8 11 8 11 15 16 16 10 9 10 11 11 8 9 11 7 10 5 7 10 11 10 12 11 13 13 13
17 18 18 19 20 21 22 23 25 27 29 30 33 26 7 8 6 6 7 10 9 2 9 4 7 12 14 13 11 8 6 7 4 9 8 6 12 6 4 7 14 11 8 10 15 14 10
18 18 18 20 20 21 22 23 25 27 30 31 35 5 6 4 4 5 9 11 8 7 4 4 10 10 12 11 4 9 11 8 7 1 8 4 3 6 1 7 7 13 9 6 10 14 14
17 18 19 19 19 21 22 23 26 28 31 30 10 8 5 1 4 6 9 14 5 2 5 6 11 13 14 14 11 9 11 2 4 4 5 5 10 5 2 5 13 10 10 8 8 10 12
19 17 18 18 19 20 21 23 25 28 32 34 7 7 7 3 5 8 10 9 8 3 4 8 11 3 13 8 10 13 6 8 2 4 6 6 5 7 8 6 8 4 9 8 5 9 11
18 18 17 18 18 20 20 22 23 25 32 14 6 5 5 5 9 9 11 4 4 9 9 8 7 8 4 7 7 11 5 5 2 3 8 5 6 9 14 8 5 9 11 10 8 10 11
18 18 18 18 17 18 20 21 23 22 19 10 7 5 5 6 7 7 4 7 6 7 9 8 9 6 4 7 5 8 2 6 3 6 5 5 5 7 8 11 7 6 1 6 6 8 12
18 19 19 19 17 17 19 21 23 23 20 9 7 4 6 7 7 10 2 9 7 5 9 7 5 4 8 6 6 4 5 3 3 1 3 2 6 9 11 10 7 6 6 6 7 5 10
18 19 19 19 17 17 18 19 22 25 24 7 5 3 5 3 4 6 4 10 9 7 10 10 9 12 10 7 7 9 4 7 6 6 6 5 10 13 10 5 7 10 10 9 10 11 11
16 17 17 17 19 17 17 17 20 26 31 7 6 5 2 9 8 8 8 12 12 8 3 11 14 13 11 6 10 8 4 6 7 10 9 5 9 7 12 10 7 11 10 7 10 9 8
16 16 17 18 19 18 16 15 19 22 22 6 5 3 6 4 8 10 10 10 7 5 3 10 5 13 10 4 5 6 5 5 5 3 8 6 7 4 10 5 8 10 7 8 6 2 6
14 15 16 17 18 19 15 14 17 17 15 9 5 8 7 10 8 9 4 6 9 9 11 3 8 9 8 8 5 3 2 3 6 5 7 6 7 5 7 6 8 5 3 3 4 1 3
14 14 16 16 16 16 17 12 14 15 15 10 7 6 7 9 10 8 9 11 11 6 10 6 3 7 7 6 6 6 7 6 10 7 6 8 7 1 4 7 10 11 6 4 3 3 6
16 12 14 15 15 15 18 13 11 14 15 10 6 5 7 8 4 8 7 10 9 10 8 3 3 3 4 7 8 8 9 7 7 6 6 7 9 6 5 4 4 9 8 5 1 9 10
15 11 13 14 14 15 15 16 12 11 13 10 6 2 6 9 13 4 6 8 4 8 7 11 9 7 6 7 9 9 10 4 8 9 8 8 9 10 8 5 8 11 9 4 7 3 9
14 14 13 14 13 15 15 15 15 11 10 9 6 3 7 9 13 9 8 9 7 7 10 7 8 6 8 9 8 7 5 6 9 6 5 9 7 7 11 12 8 11 8 5 6 6 4
14 14 13 13 13 14 14 14 16 11 8 8 6 6 4 8 11 13 12 13 12 8 7 4 2 5 6 5 5 4 4 6 5 7 9 6 8 3 4 2 6 9 2 8 5 6 5
Wind_Direction
18 16 15 13 8 5 3 3 3 2 359 357 354 353 348 340 332 326 319 314 306 300 293 291 292 304 282 219 79 111 138 166 213 232 251 229 240 233 243 240 235 247 264 237 269 261 216
14 11 9 7 4 1 1 1 2 0 357 354 353 349 345 340 333 325 315 306 299 293 287 284 287 299 241 248 96 136 148 180 253 234 230 252 271 313 291 263 233 262 249 262 250 258 231
10 7 5 3 1 360 357 356 357 357 356 353 350 347 344 338 332 325 312 302 292 281 274 271 278 282 262 75 128 149 190 255 259 258 201 303 329 239 327 229 254 273 265 246 254 248 254
6 3 3 2 2 1 356 353 354 353 352 350 347 344 342 337 332 325 313 306 292 262 252 257 267 265 319 132 173 203 190 183 206 194 24 259 251 280 256 35 231 242 234 252 200 211 217
5 4 4 2 0 358 355 353 350 349 348 346 344 342 339 336 332 325 314 308 300 221 223 232 242 228 137 143 208 179 206 173 167 182 184 262 245 277 193 230 214 206 256 212 123 183 244
5 6 4 1 358 355 353 350 347 345 344 342 341 339 336 333 330 323 310 287 160 197 219 218 262 258 183 161 126 179 182 229 191 186 205 233 230 234 223 234 252 209 235 170 265 152 222
6 5 1 360 357 355 352 348 345 342 339 338 337 336 332 331 327 320 301 202 207 198 222 254 147 292 127 138 173 208 179 210 217 228 249 188 260 226 252 272 348 317 309 288 196 119 273
2 2 360 358 357 355 349 344 343 339 336 334 333 332 329 329 324 311 263 262 39 352 280 205 230 265 273 291 181 162 184 219 201 238 188 230 233 34 321 280 262 260 255 254 257 135 228
357 357 356 356 355 351 345 341 340 336 334 332 329 328 327 327 323 254 243 306 318 317 252 156 194 199 178 208 208 154 212 222 240 222 211 268 57 81 257 212 240 236 258 256 270 158 219
352 348 353 353 352 350 343 339 336 335 332 329 325 326 326 325 291 198 213 141 261 336 263 147 181 199 179 226 175 59 235 288 213 314 212 271 62 235 219 237 262 272 139 299 276 225 232
344 341 344 345 345 342 340 337 336 335 330 326 322 323 322 314 318 245 72 293 352 233 258 145 168 131 181 214 119 177 195 231 284 147 251 93 190 224 254 46 313 7 319 279 277 255 252
343 341 339 342 343 340 338 337 335 333 329 323 319 321 324 198 227 292 221 210 251 234 215 155 154 190 190 210 196 132 192 233 4 282 250 320 30 286 7 0 288 334 270 248 254 253 251
342 340 340 338 341 339 338 336 334 331 327 321 319 317 305 310 339 181 235 227 224 254 111 156 182 186 200 180 167 183 183 196 270 229 193 186 211 116 280 266 202 236 259 256 247 229 254
344 342 341 341 339 339 336 336 335 331 325 322 319 316 192 269 313 270 235 226 257 284 184 82 200 192 207 174 200 186 219 204 209 283 293 256 177 183 105 299 317 316 324 298 302 297 315
345 342 342 343 340 339 336 335 334 331 327 327 312 215 237 123 274 253 235 228 216 269 351 198 201 209 204 195 272 202 225 260 77 293 312 282 164 127 48 308 289 288 242 343 301 282 265
345 342 343 341 339 338 337 335 334 334 330 329 312 275 74 176 175 233 241 253 288 255 314 246 242 215 218 197 195 203 203 127 156 271 294 25 295 127 72 274 240 261 332 283 234 260 271
339 343 341 339 340 339 337 335 337 336 333 320 262 254 89 225 215 232 242 233 219 153 264 244 254 266 259 266 189 230 254 111 156 179 242 300 255 279 220 237 332 263 243 223 254 304 306
338 344 343 340 341 338 338 336 339 340 337 325 278 258 101 210 219 222 240 220 19 267 206 241 275 294 263 250 247 250 254 75 52 244 234 75 310 296 290 55 326 287 295 315 290 282 279
343 340 343 341 340 339 339 338 338 343 360 317 292 299 138 225 246 200 177 248 226 242 242 219 232 245 225 233 244 295 351 58 206 237 336 174 235 282 289 185 191 246 49 293 297 293 276
342 341 340 341 340 341 340 339 337 339 343 309 276 253 158 202 272 291 34 257 226 191 267 255 275 222 207 215 222 238 191 134 215 75 353 339 264 272 273 346 338 291 232 255 288 268 275
342 343 340 339 344 342 342 341 339 338 335 295 255 78 10 263 169 302 277 291 271 203 225 211 218 227 220 237 236 224 196 124 189 147 202 264 269 271 274 296 276 278 292 282 264 271 274
339 342 340 341 342 342 342 344 346 339 332 251 310 336 14 284 286 258 232 251 247 248 243 221 241 218 242 207 240 277 185 195 220 167 237 194 269 287 279 252 250 273 269 256 276 288 279
338 342 340 345 341 342 341 347 351 349 336 311 18 229 272 269 235 242 247 229 278 290 180 276 267 250 225 90 43 47 28 10 319 235 206 228 272 266 277 40 288 266 273 245 263 300 300
330 336 340 338 336 343 341 348 350 350 349 315 358 295 272 263 244 256 243 280 263 264 274 165 265 241 81 109 128 132 152 213 219 211 292 224 246 256 276 276 270 93 51 348 255 278 209
317 327 333 338 333 332 339 343 343 344 339 306 313 299 293 273 276 283 259 254 263 230 247 230 58 14 144 175 218 198 203 224 223 203 209 249 247 249 260 289 255 166 175 183 227 249 174
317 315 324 329 333 331 332 333 339 339 339 303 310 323 278 291 275 354 301 265 262 228 170 174 127 176 212 251 215 251 257 215 151 168 240 219 250 158 257 224 289 85 122 136 136 263 108
318 314 317 321 326 331 324 328 326 331 336 316 293 339 275 274 275 316 271 313 280 286 260 148 159 183 231 234 246 249 255 231 246 219 158 201 209 219 222 230 258 112 140 146 238 87 121
307 307 308 311 320 324 321 323 326 315 332 318 316 356 300 289 286 295 282 288 286 253 262 131 173 200 194 245 241 252 261 229 236 258 167 201 199 203 223 244 253 128 152 227 80 118 118
300 303 300 304 308 318 320 318 320 298 316 324 285 346 302 262 295 320 294 287 283 306 327 224 313 230 220 214 254 272 238 262 249 256 169 255 215 253 144 277 91 152 170 102 149 143 125